星链-31949 (STARLINK-31949 )

导读 | 豆包AI

STARLINK-31949是美国太空探索技术公司 SpaceX 星链互联网卫星星座的一员,于2024年5月28日发射入轨。星链项目旨在构建全球卫星互联网星座,为全球提供覆盖偏远地区的高速互联网服务,该卫星进一步扩充了星链星座的在轨规模,提升星座服务覆盖能力。

基本信息
目录编号:
59891
目录名称:
STARLINK-31949
国际标识:
2024-100G
轨道中心:
EARTH
卫星名称:
星链-31949
卫星全名:
星链-31949 (STARLINK-31949 )
卫星状态:
在轨 (已飞行703 天)
发射日期:
2024-05-28 UTC
国别 :
美国 (US)
星等 :
--
轨道信息
数据来源 国际轨道数据 AOE轨道数据
星历时间 2026-04-30T21:57:08+0800
12小时前
查看轨道信息
2026-04-27T07:00:00+0800
4天前
查看轨道信息
半长轴 6861.181km 6861.208km
偏心率 0.000076 0.0000179
轨道倾角 43.002° 43.004°
近地点辐角 274.544° 227.141°
升交点赤经 192.283° 212.748°
平近点角 85.532° 345.615°
近地点 482.522km 482.948km
远地点 483.566km 483.194km
周期 94.267分钟 94.267分钟
每日圈数 15.27582 15.275728
详细信息
固有亮度:
5
最大亮度:
1.5
卫星平台:
Starlink v2.0 mini
覆盖范围:
全球
运营商:
太空探索技术公司
运营商所在国:
美国
制造商(研发单位):
太空探索技术公司
制造商所在国:
美国
使用方式:
暂无
卫星简介
星链(Starlink)计划是由太空探索技术公司(SpaceX)提出的一个巨型低轨卫星互联网星座项目,计划在2019年至2024年间在太空搭建由约1.2万颗卫星组成的“星链”网络,其中1584颗将部署在地球上空550千米处的近地轨道,并从2020年开始工作。该卫星仍在工作。
2D轨道图
3D轨道图
轨道高度分析图
轨道倾角分析图
轨道综合分析图
查看轨道综合分析图